[[{"header":{"parameterUnit":"m.s-1","parameterCategory":2,"la1":30.2991,"la2":30.254,"lo1":-89.0895,"lo2":-89.0444,"dy":0.0017,"dx":0.0017,"nx":28,"ny":28,"refTime":"2024-06-20T03:00:00:Z","depth":"0","parameterNumber":2,"parameterNumberName":"U-component_of_CURRENTS"},"data":[0,0,0,0,0,0,0,0,0,0,0,0,0,0,0,0,0,0,0,0,0,0,0,0,0,0,0,0,0,0,0,0,0,0,0,0,0,0,0,0,0,0,0,0,0,0,0,0,0,0,0,0,0,0,0,0,0,0,-0.187,-0.1871,0,-0.1958,-0.1959,-0.196,-0.1935,-0.1933,-0.1931,-0.1929,-0.1893,-0.1894,-0.1895,0,0,0,0,0,0,0,0,0,0,0,0,0,-0.1752,-0.1754,-0.187,-0.1871,-0.1872,-0.1957,-0.1959,-0.196,-0.1935,-0.1933,-0.193,-0.1928,-0.1892,-0.1894,-0.1895,0,0,0,0,0,0,0,0,0,0,0,0,0,-0.182,-0.1755,-0.187,-0.1868,-0.1868,-0.1957,-0.1959,-0.1961,-0.1936,-0.1933,-0.193,-0.1927,-0.1892,-0.1893,-0.1895,-0.1965,0,0,-0.1899,-0.19,0,0,0,0,0,0,0,0,-0.1816,-0.1825,-0.1867,-0.1868,-0.1869,-0.193,-0.1904,-0.1955,-0.1937,-0.1913,-0.1929,-0.1925,-0.1894,-0.1895,-0.1924,-0.1963,-0.1962,-0.1899,-0.19,-0.1901,-0.1901,0,0,0,0,0,0,0,-0.1811,-0.1821,-0.1908,-0.1868,-0.1869,-0.1886,-0.1892,-0.1915,-0.192,-0.1915,-0.1912,-0.1919,-0.1894,-0.1923,-0.1923,-0.1961,-0.1899,-0.1901,-0.1901,-0.1902,-0.1995,-0.1996,0,0,0,0,0,0,-0.1796,-0.1817,-0.1905,-0.191,-0.1831,-0.189,-0.1897,-0.1916,-0.1922,-0.192,-0.1921,-0.1917,-0.1922,-0.1921,-0.1921,-0.199,-0.1901,-0.1902,-0.1903,-0.1993,-0.1995,-0.1997,0,0,0,0,0,0,-0.1793,-0.1803,-0.1901,-0.1862,-0.1875,-0.1895,-0.1916,-0.1919,-0.194,-0.1928,-0.1923,-0.1937,-0.192,-0.1919,-0.194,-0.1988,-0.1903,-0.1904,-0.1991,-0.1994,-0.1996,-0.2135,0,0,0,0,0,0,-0.1789,-0.1802,-0.1817,-0.1862,-0.1877,-0.1967,-0.1919,-0.1923,-0.1947,-0.1943,-0.1941,-0.1935,-0.1917,-0.1939,-0.1942,-0.1988,-0.1905,-0.1989,-0.1992,-0.1995,-0.2129,-0.2142,-0.2154,0,0,0,0,0,-0.1785,-0.183,-0.1817,-0.1828,-0.1894,-0.1969,-0.1981,-0.1984,-0.1951,-0.1987,-0.1969,-0.1934,-0.1959,-0.1942,-0.1945,-0.1993,-0.1988,-0.1991,-0.1995,-0.2123,-0.2139,-0.2153,0,0,0,0,0,0,-0.1793,-0.1833,-0.1819,-0.1874,-0.1916,-0.1964,-0.1996,-0.1994,-0.2016,-0.1997,-0.1969,-0.1965,-0.1997,-0.1976,-0.1958,-0.2024,-0.1963,-0.1968,-0.2059,-0.2075,-0.2087,-0.2119,-0.1906,0,0,0,0,0,-0.1799,-0.1835,-0.1876,-0.1918,-0.194,-0.1966,-0.1994,-0.2001,-0.2022,-0.2028,-0.2022,-0.2011,-0.2023,-0.203,-0.2033,-0.2086,-0.2058,-0.2111,-0.2124,-0.2135,-0.2161,-0.2178,-0.2196,-0.2009,-0.2009,-0.2009,0,0,-0.1807,-0.1837,-0.1854,-0.192,-0.1948,-0.2013,-0.1977,-0.2032,-0.2088,-0.2021,-0.2083,-0.2057,-0.2043,-0.2093,-0.2105,-0.2079,-0.2165,-0.2139,-0.2149,-0.217,-0.2184,-0.2202,-0.2219,-0.2011,-0.2011,-0.201,0,0,-0.1868,-0.1875,-0.1931,-0.1972,-0.2024,-0.2051,-0.2066,-0.2117,-0.214,-0.2197,-0.2155,-0.2166,-0.2183,-0.2197,-0.2201,-0.2289,-0.2227,-0.227,-0.2374,-0.2391,-0.2407,-0.2421,-0.2379,-0.2389,-0.2283,-0.2284,-0.2284,0,-0.1874,-0.1952,-0.1962,-0.2032,-0.2076,-0.2069,-0.2151,-0.2191,-0.224,-0.2275,-0.2223,-0.2265,-0.2244,-0.2322,-0.2343,-0.2323,-0.2293,-0.2322,-0.241,-0.2424,-0.2436,-0.239,-0.2398,-0.2291,-0.229,-0.2289,-0.2289,0,-0.1976,-0.2038,-0.2079,-0.2157,-0.2211,-0.2279,-0.2327,-0.2376,-0.2379,-0.2408,-0.247,-0.2448,-0.2463,-0.2463,-0.2432,-0.2514,-0.2449,-0.242,-0.2378,-0.2463,-0.2408,-0.2414,-0.2301,-0.2299,-0.2296,-0.2295,0,0,-0.1977,-0.2126,-0.2133,-0.2189,-0.2282,-0.2332,-0.244,-0.254,-0.2578,-0.2621,-0.2683,-0.2719,-0.2675,-0.2676,-0.2636,-0.2662,-0.2702,-0.2584,-0.2581,-0.2553,-0.2695,-0.2665,-0.2667,-0.2686,-0.2689,-0.2691,-0.2612,0,-0.205,-0.2205,-0.2266,-0.2392,-0.247,-0.2515,-0.2604,-0.2681,-0.2712,-0.2759,-0.2779,-0.2794,-0.2766,-0.2739,-0.278,-0.2699,-0.273,-0.2724,-0.2608,-0.2604,-0.2578,-0.2679,-0.2627,-0.2555,-0.2617,-0.2618,-0.2619,0,-0.2109,-0.2215,-0.2366,-0.2505,-0.2539,-0.2604,-0.2712,-0.2788,-0.2867,-0.2888,-0.2935,-0.2908,-0.295,-0.2889,-0.2881,-0.2869,-0.2812,-0.2765,-0.276,-0.2696,-0.2589,-0.2485,-0.2563,-0.2552,-0.2628,-0.2627,-0.2626,0,-0.2077,-0.2265,-0.2387,-0.2434,-0.2595,-0.266,-0.2725,-0.2817,-0.2842,-0.2938,-0.2917,-0.3004,-0.2949,-0.2968,-0.2875,-0.2869,-0.2833,-0.2801,-0.2738,-0.273,-0.265,-0.2633,-0.2721,-0.2837,-0.2837,-0.2837,-0.2837,0,-0.211,-0.2191,-0.2371,-0.2423,-0.2518,-0.2638,-0.27,-0.2779,-0.2839,-0.2846,-0.2937,-0.2923,-0.2961,-0.2932,-0.2904,-0.2832,-0.2856,-0.2786,-0.2738,-0.2691,-0.268,-0.2634,-0.2631,-0.2834,-0.2835,-0.2835,-0.2836,0,-0.2023,-0.2161,-0.2271,-0.2453,-0.2494,-0.2535,-0.2619,-0.2644,-0.2727,-0.2727,-0.2742,-0.2814,-0.2816,-0.284,-0.2821,-0.2804,-0.2744,-0.2751,-0.2671,-0.2619,-0.2579,-0.2584,-0.2581,-0.2516,-0.2687,-0.2686,-0.2686,0,-0.1998,-0.2056,-0.2217,-0.2243,-0.2311,-0.2388,-0.2419,-0.255,-0.2565,-0.2644,-0.2621,-0.2655,-0.2689,-0.2677,-0.2694,-0.2693,-0.2678,-0.262,-0.2646,-0.2611,-0.2581,-0.2561,-0.2503,-0.2558,-0.2556,-0.2555,-0.2554,0,-0.1908,-0.195,-0.2023,-0.209,-0.2133,-0.2179,-0.2244,-0.2249,-0.2388,-0.2426,-0.2482,-0.2533,-0.2567,-0.26,-0.2611,-0.2589,-0.2586,-0.2592,-0.2593,-0.2549,-0.2496,-0.2394,-0.2531,-0.2542,-0.2543,-0.2544,-0.2545,-0.2545,-0.1781,-0.1786,-0.1867,-0.1909,-0.1947,-0.1966,-0.1972,-0.2071,-0.2119,-0.2206,-0.2327,-0.2436,-0.2527,-0.257,-0.2546,-0.2498,-0.2484,-0.2459,-0.2475,-0.2463,-0.2412,-0.2515,-0.2462,-0.2463,-0.2463,-0.2464,-0.2464,0,-0.1642,-0.1664,-0.1686,-0.1741,-0.1716,-0.1797,-0.1844,-0.1854,-0.1918,-0.2075,-0.2188,-0.2411,-0.2448,-0.2513,-0.2509,-0.2427,-0.2349,-0.2359,-0.2331,-0.2281,-0.2401,-0.2411,-0.2302,-0.2302,-0.2302,-0.2302,-0.2302,-0.2302,-0.157,-0.1546,-0.1575,-0.1512,-0.1531,-0.1494,-0.1505,-0.156,-0.1664,-0.1846,-0.2055,-0.2274,-0.2355,-0.2599,-0.2526,-0.2414,-0.2329,-0.2255,-0.2236,-0.2349,-0.236,-0.237,-0.2382,-0.2269,-0.2269,-0.2058,-0.2057,-0.2056]},{"header":{"parameterUnit":"m.s-1","parameterCategory":2,"la1":30.2991,"la2":30.254,"lo1":-89.0895,"lo2":-89.0444,"dy":0.0017,"dx":0.0017,"nx":28,"ny":28,"refTime":"2024-06-20T03:00:00:Z","depth":"0","parameterNumber":3,"parameterNumberName":"V-component_of_CURRENTS"},"data":[0,0,0,0,0,0,0,0,0,0,0,0,0,0,0,0,0,0,0,0,0,0,0,0,0,0,0,0,0,0,0,0,0,0,0,0,0,0,0,0,0,0,0,0,0,0,0,0,0,0,0,0,0,0,0,0,0,0,-0.0136,-0.0135,0,-0.0076,-0.0075,-0.0074,-0.003,-0.0029,-0.0029,-0.0029,0.0077,0.0079,0.0082,0,0,0,0,0,0,0,0,0,0,0,0,0,-0.0152,-0.0152,-0.0136,-0.0135,-0.0135,-0.0076,-0.0075,-0.0074,-0.003,-0.0029,-0.0029,-0.0028,0.0076,0.0079,0.0082,0,0,0,0,0,0,0,0,0,0,0,0,0,-0.0125,-0.0152,-0.0136,-0.0105,-0.0101,-0.0076,-0.0075,-0.0074,-0.003,-0.0029,-0.0029,-0.0028,0.0075,0.0079,0.0082,0.0091,0,0,0.0093,0.0095,0,0,0,0,0,0,0,0,-0.0126,-0.0124,-0.011,-0.0107,-0.0103,-0.0059,-0.0042,-0.0016,-0.003,-0.0058,-0.0029,-0.0028,0.0036,0.0043,0.0051,0.0096,0.0101,0.0094,0.0096,0.0097,0.0098,0,0,0,0,0,0,0,-0.0128,-0.0126,-0.0113,-0.0109,-0.0105,-0.0073,-0.0069,-0.0037,-0.0015,-0.0055,-0.0052,-0.0044,0.0038,0.0047,0.0054,0.0102,0.0094,0.0097,0.0099,0.01,0.0173,0.0173,0,0,0,0,0,0,-0.0138,-0.0128,-0.0115,-0.0111,-0.0112,-0.0073,-0.0069,-0.0074,-0.0017,-0.0007,-0.0045,-0.0042,0.0041,0.005,0.0058,0.0087,0.0097,0.0101,0.0103,0.0174,0.0173,0.0173,0,0,0,0,0,0,-0.0139,-0.0138,-0.0117,-0.0117,-0.0112,-0.0074,-0.008,-0.0074,-0.0063,-0.0009,0.0001,-0.0042,0.0042,0.0053,0.0082,0.0091,0.0102,0.0106,0.0174,0.0174,0.0173,0.0137,0,0,0,0,0,0,-0.014,-0.014,-0.0147,-0.0118,-0.0112,-0.0118,-0.0081,-0.0073,-0.0059,-0.0056,-0.0003,0.0008,0.0043,0.0076,0.0085,0.0096,0.0108,0.0174,0.0174,0.0173,0.0138,0.0135,0.0132,0,0,0,0,0,-0.0141,-0.0169,-0.0148,-0.0146,-0.0124,-0.0119,-0.0114,-0.0084,-0.006,-0.007,-0.0025,0.0006,0.0081,0.0079,0.009,0.0102,0.0174,0.0174,0.0173,0.0139,0.0136,0.0133,0,0,0,0,0,0,-0.0188,-0.0166,-0.0142,-0.0163,-0.0144,-0.0112,-0.0116,-0.009,-0.0063,-0.0052,0.0002,0.0014,0.0044,0.0072,0.0069,0.012,0.0133,0.0135,0.0104,0.0101,0.0098,0.0101,0.0111,0,0,0,0,0,-0.0199,-0.0207,-0.0179,-0.0193,-0.0187,-0.0148,-0.014,-0.0118,-0.0089,-0.0076,-0.0037,0.0008,0.005,0.0073,0.0105,0.0132,0.0175,0.0147,0.0144,0.0142,0.0151,0.0219,0.0224,0.0172,0.0172,0.0172,0,0,-0.0218,-0.0207,-0.021,-0.0201,-0.0182,-0.0182,-0.0143,-0.0139,-0.0126,-0.0068,-0.0046,-0.0004,0.0052,0.0083,0.01,0.011,0.0175,0.0141,0.0139,0.0149,0.022,0.0225,0.023,0.0171,0.0171,0.0171,0,0,-0.0271,-0.0253,-0.028,-0.0265,-0.0241,-0.0213,-0.0215,-0.0183,-0.0158,-0.0135,-0.008,-0.0032,0.0012,0.0068,0.0101,0.0102,0.0155,0.0106,0.0104,0.017,0.0175,0.018,0.0228,0.0238,0.011,0.011,0.011,0,-0.0293,-0.0321,-0.0287,-0.0303,-0.0294,-0.0231,-0.0251,-0.0214,-0.0174,-0.0143,-0.0138,-0.0031,0.0012,0.0087,0.0087,0.01,0.0136,0.0112,0.0167,0.0174,0.018,0.0228,0.024,0.0108,0.0108,0.0108,0.0108,0,-0.0355,-0.0375,-0.0391,-0.0381,-0.0368,-0.0375,-0.0318,-0.0293,-0.025,-0.0198,-0.0129,-0.0064,0.0006,0.0026,0.0059,0.0129,0.0139,0.0153,0.0178,0.0183,0.0233,0.0246,0.0105,0.0106,0.0106,0.0107,0,0,-0.041,-0.0433,-0.0434,-0.0449,-0.0408,-0.0408,-0.0373,-0.0322,-0.0278,-0.0221,-0.0164,-0.008,-0.0023,0.0018,0.0076,0.0138,0.0207,0.0159,0.0164,0.0209,0.0343,0.0382,0.04,0.023,0.0232,0.0234,0.0356,0,-0.0467,-0.053,-0.0511,-0.0546,-0.0573,-0.0499,-0.0472,-0.0403,-0.0323,-0.0249,-0.0141,-0.0072,-0.0029,0.0008,0.0081,0.0181,0.0241,0.0172,0.0329,0.0333,0.0371,0.0417,0.0463,0.0579,0.0368,0.0371,0.0372,0,-0.0529,-0.0564,-0.0626,-0.0636,-0.0636,-0.0631,-0.0554,-0.0519,-0.0376,-0.0313,-0.0199,-0.0107,0.0014,0.0033,0.0218,0.0171,0.0251,0.0323,0.033,0.0393,0.0398,0.0542,0.0611,0.0774,0.0392,0.0391,0.0389,0,-0.0594,-0.0639,-0.0694,-0.0695,-0.069,-0.0684,-0.0656,-0.0535,-0.0488,-0.0337,-0.0278,-0.0117,-0.0036,0.0095,0.0254,0.0237,0.0449,0.0444,0.0556,0.0558,0.0644,0.0651,0.0897,0.0565,0.0565,0.0565,0.0564,0,-0.0667,-0.0708,-0.0729,-0.0761,-0.0794,-0.0752,-0.0731,-0.0664,-0.0548,-0.0471,-0.0315,-0.0227,-0.0017,0.0136,0.026,0.0461,0.0459,0.0576,0.0606,0.063,0.0634,0.0816,0.0867,0.0569,0.0568,0.0567,0.0567,0,-0.0737,-0.0754,-0.082,-0.0837,-0.0838,-0.0853,-0.0808,-0.077,-0.0656,-0.0548,-0.0507,-0.0294,-0.0083,0.0127,0.0358,0.0473,0.0755,0.0709,0.0717,0.0746,0.0996,0.104,0.13,0.1378,0.0862,0.0864,0.0865,0,-0.0788,-0.0831,-0.0881,-0.0909,-0.0922,-0.093,-0.0922,-0.0834,-0.0775,-0.0588,-0.0539,-0.0311,-0.013,0.0231,0.0496,0.0757,0.0852,0.092,0.0904,0.1046,0.1118,0.1144,0.119,0.0997,0.1,0.1002,0.1004,0,-0.0872,-0.088,-0.0926,-0.0993,-0.1012,-0.1026,-0.1,-0.0979,-0.0843,-0.0751,-0.0587,-0.0434,-0.0027,0.0325,0.0682,0.0821,0.105,0.097,0.1136,0.1273,0.1301,0.1377,0.0861,0.1023,0.1021,0.1019,0.1018,0.1017,-0.0913,-0.0956,-0.1009,-0.1066,-0.1091,-0.1103,-0.1117,-0.1064,-0.1002,-0.0836,-0.0652,-0.0397,0.0177,0.0706,0.0889,0.1297,0.1223,0.1387,0.1436,0.1454,0.1527,0.1042,0.1221,0.1221,0.122,0.122,0.1219,0,-0.0963,-0.1004,-0.1072,-0.1133,-0.1173,-0.1166,-0.1153,-0.1146,-0.1099,-0.0892,-0.0712,-0.008,0.0461,0.096,0.1576,0.1767,0.1791,0.1838,0.1903,0.1931,0.1539,0.1544,0.1779,0.1778,0.1778,0.1778,0.1778,0.1778,-0.0991,-0.106,-0.11,-0.1189,-0.1225,-0.1266,-0.1267,-0.125,-0.1134,-0.0842,-0.0499,-0.0187,0.0598,0.1661,0.2208,0.2221,0.2372,0.234,0.2411,0.2158,0.212,0.2083,0.2104,0.2452,0.2453,0.2793,0.2796,0.2799]}],[{"header":{"parameterUnit":"m.s-1","parameterCategory":2,"la1":30.2991,"la2":30.254,"lo1":-89.0895,"lo2":-89.0444,"dy":0.0017,"dx":0.0017,"nx":28,"ny":28,"refTime":"2024-06-20T03:00:00:Z","depth":"2","parameterNumber":2,"parameterNumberName":"U-component_of_CURRENTS"},"data":[0,0,0,0,0,0,0,0,0,0,0,0,0,0,0,0,0,0,0,0,0,0,0,0,0,0,0,0,0,0,0,0,0,0,0,0,0,0,0,0,0,0,0,0,0,0,0,0,0,0,0,0,0,0,0,0,0,0,-0.1712,-0.1712,0,-0.1785,-0.1787,-0.1788,-0.178,-0.1778,-0.1776,-0.1775,-0.1765,-0.1766,-0.1767,0,0,0,0,0,0,0,0,0,0,0,0,0,-0.1607,-0.1609,-0.1711,-0.1712,-0.1712,-0.1785,-0.1787,-0.1788,-0.178,-0.1778,-0.1776,-0.1774,-0.1764,-0.1766,-0.1767,0,0,0,0,0,0,0,0,0,0,0,0,0,-0.1668,-0.161,-0.1711,-0.1714,-0.1714,-0.1785,-0.1787,-0.1789,-0.178,-0.1778,-0.1775,-0.1773,-0.1764,-0.1766,-0.1767,-0.1827,0,0,-0.1773,-0.1774,0,0,0,0,0,0,0,0,-0.1665,-0.1673,-0.1713,-0.1714,-0.1714,-0.1767,-0.1746,-0.1796,-0.1781,-0.176,-0.1775,-0.1772,-0.1756,-0.1759,-0.1786,-0.1826,-0.1826,-0.1773,-0.1774,-0.1775,-0.1776,0,0,0,0,0,0,0,-0.1661,-0.167,-0.1745,-0.1714,-0.1714,-0.1726,-0.1732,-0.1756,-0.1773,-0.1762,-0.176,-0.1762,-0.1756,-0.1784,-0.1785,-0.1826,-0.1773,-0.1775,-0.1776,-0.1777,-0.1881,-0.1883,0,0,0,0,0,0,-0.1643,-0.1666,-0.1743,-0.1747,-0.1678,-0.1729,-0.1736,-0.1756,-0.1774,-0.1774,-0.1764,-0.1761,-0.1782,-0.1783,-0.1784,-0.1867,-0.1775,-0.1777,-0.1778,-0.1879,-0.1882,-0.1883,0,0,0,0,0,0,-0.1641,-0.165,-0.174,-0.1703,-0.1714,-0.1733,-0.1756,-0.1759,-0.1785,-0.1776,-0.1775,-0.1785,-0.178,-0.1782,-0.1811,-0.1866,-0.1778,-0.1779,-0.1878,-0.188,-0.1882,-0.2025,0,0,0,0,0,0,-0.1638,-0.165,-0.1665,-0.1703,-0.1716,-0.1799,-0.1758,-0.1762,-0.1787,-0.1784,-0.1794,-0.1791,-0.1779,-0.1809,-0.1813,-0.1867,-0.1781,-0.1875,-0.1879,-0.1882,-0.2018,-0.2032,-0.2044,0,0,0,0,0,-0.1635,-0.1674,-0.1666,-0.1675,-0.1735,-0.1801,-0.1812,-0.1817,-0.179,-0.1827,-0.1818,-0.179,-0.183,-0.1812,-0.1817,-0.1872,-0.1874,-0.1878,-0.1881,-0.2012,-0.2029,-0.2044,0,0,0,0,0,0,-0.1643,-0.1677,-0.1669,-0.1717,-0.1758,-0.1798,-0.1827,-0.1828,-0.1856,-0.1842,-0.1823,-0.1822,-0.1864,-0.1846,-0.1826,-0.1907,-0.1844,-0.1849,-0.1942,-0.1958,-0.1971,-0.2002,-0.1782,0,0,0,0,0,-0.1649,-0.1682,-0.1718,-0.1757,-0.1776,-0.1802,-0.1827,-0.1836,-0.1859,-0.1869,-0.1875,-0.1872,-0.1889,-0.1902,-0.1911,-0.1969,-0.1937,-0.2001,-0.2014,-0.2025,-0.2052,-0.2063,-0.2081,-0.1896,-0.1896,-0.1896,0,0,-0.1659,-0.1683,-0.17,-0.176,-0.1786,-0.185,-0.1814,-0.1864,-0.1927,-0.1864,-0.1942,-0.192,-0.191,-0.1969,-0.1986,-0.1961,-0.2053,-0.203,-0.204,-0.2061,-0.2069,-0.2088,-0.2104,-0.1898,-0.1898,-0.1897,0,0,-0.1717,-0.1721,-0.1777,-0.1814,-0.186,-0.1886,-0.1902,-0.1953,-0.1984,-0.2048,-0.2014,-0.2031,-0.2059,-0.2078,-0.2085,-0.2176,-0.2115,-0.2163,-0.2271,-0.2283,-0.2299,-0.2312,-0.2265,-0.2273,-0.2178,-0.2179,-0.2179,0,-0.1725,-0.1802,-0.1806,-0.1873,-0.1914,-0.1906,-0.1989,-0.2033,-0.2089,-0.2128,-0.2083,-0.2136,-0.2122,-0.2205,-0.2231,-0.2212,-0.2179,-0.2217,-0.2302,-0.2315,-0.2327,-0.2275,-0.2282,-0.2186,-0.2185,-0.2184,-0.2184,0,-0.1827,-0.1888,-0.1925,-0.2004,-0.2056,-0.2119,-0.2172,-0.2226,-0.2237,-0.227,-0.2341,-0.2325,-0.2346,-0.2351,-0.2323,-0.2408,-0.2341,-0.2312,-0.2269,-0.2355,-0.2293,-0.2298,-0.2197,-0.2194,-0.2192,-0.219,0,0,-0.1834,-0.1974,-0.1982,-0.2038,-0.2128,-0.2174,-0.2291,-0.2394,-0.2435,-0.249,-0.2556,-0.2604,-0.2561,-0.2565,-0.253,-0.2556,-0.2593,-0.2478,-0.2475,-0.2441,-0.2574,-0.2546,-0.2547,-0.2576,-0.2579,-0.2581,-0.2487,0,-0.1911,-0.2058,-0.2118,-0.2246,-0.2318,-0.2364,-0.2459,-0.2539,-0.2575,-0.2627,-0.2653,-0.2674,-0.2654,-0.2629,-0.2671,-0.2588,-0.2618,-0.2619,-0.2488,-0.2483,-0.2458,-0.2558,-0.2359,-0.2262,-0.2491,-0.2492,-0.2492,0,-0.1974,-0.2071,-0.222,-0.2354,-0.2388,-0.2457,-0.2564,-0.2646,-0.2728,-0.2752,-0.2804,-0.278,-0.2828,-0.2771,-0.2761,-0.2753,-0.2696,-0.2647,-0.2641,-0.2578,-0.2468,-0.2218,-0.2262,-0.25,-0.25,-0.2499,-0.2498,0,-0.1941,-0.2125,-0.2243,-0.2288,-0.2444,-0.2512,-0.258,-0.2674,-0.2703,-0.28,-0.2778,-0.2869,-0.2816,-0.2834,-0.2746,-0.2743,-0.2698,-0.2665,-0.2603,-0.2596,-0.2386,-0.2359,-0.2698,-0.2698,-0.2698,-0.2698,-0.2699,0,-0.1974,-0.2054,-0.2227,-0.2275,-0.2369,-0.249,-0.2555,-0.2634,-0.2696,-0.2705,-0.28,-0.2785,-0.2825,-0.2795,-0.2769,-0.2695,-0.2716,-0.2651,-0.26,-0.2425,-0.2404,-0.2581,-0.2568,-0.2695,-0.2696,-0.2696,-0.2697,0,-0.1891,-0.2022,-0.2127,-0.2303,-0.2344,-0.2386,-0.2476,-0.2501,-0.2585,-0.2586,-0.2603,-0.2675,-0.2673,-0.2697,-0.2674,-0.2659,-0.2631,-0.2604,-0.2378,-0.2308,-0.2508,-0.2504,-0.2534,-0.2532,-0.2532,-0.2531,-0.253,0,-0.1867,-0.1921,-0.2073,-0.2098,-0.2166,-0.2246,-0.2278,-0.241,-0.2426,-0.2504,-0.2482,-0.2514,-0.2544,-0.2522,-0.2516,-0.2504,-0.2572,-0.2311,-0.2322,-0.256,-0.2506,-0.2503,-0.2501,-0.2055,-0.2051,-0.2047,-0.2044,0,-0.1782,-0.1821,-0.1888,-0.195,-0.1994,-0.204,-0.2111,-0.2113,-0.2253,-0.2287,-0.2341,-0.2386,-0.2392,-0.2331,-0.2329,-0.229,-0.2317,-0.2239,-0.2532,-0.2165,-0.2113,-0.2059,-0.2071,-0.2012,-0.2015,-0.2017,-0.2019,-0.202,-0.1664,-0.1666,-0.174,-0.1779,-0.1817,-0.1836,-0.1843,-0.1934,-0.1977,-0.2027,-0.2155,-0.2177,-0.2195,-0.2126,-0.2056,-0.1993,-0.2147,-0.206,-0.2069,-0.2082,-0.2082,-0.2036,-0.1914,-0.1917,-0.1919,-0.1921,-0.1923,0,-0.153,-0.1551,-0.1571,-0.1619,-0.1593,-0.1677,-0.1722,-0.1707,-0.1753,-0.184,-0.1919,-0.1791,-0.1795,-0.181,-0.1677,-0.1686,-0.1635,-0.1617,-0.1542,-0.1576,-0.1605,-0.1579,-0.1278,-0.1276,-0.1274,-0.1273,0,0,-0.1461,-0.1431,-0.1455,-0.1393,-0.1416,-0.1372,-0.1381,-0.1385,-0.1425,-0.1428,-0.147,-0.1677,-0.1752,-0.1509,-0.1466,-0.135,-0.1436,-0.1283,-0.1797,-0.1738,-0.1766,-0.1858,-0.1856,0,0,0,0,0]},{"header":{"parameterUnit":"m.s-1","parameterCategory":2,"la1":30.2991,"la2":30.254,"lo1":-89.0895,"lo2":-89.0444,"dy":0.0017,"dx":0.0017,"nx":28,"ny":28,"refTime":"2024-06-20T03:00:00:Z","depth":"2","parameterNumber":3,"parameterNumberName":"V-component_of_CURRENTS"},"data":[0,0,0,0,0,0,0,0,0,0,0,0,0,0,0,0,0,0,0,0,0,0,0,0,0,0,0,0,0,0,0,0,0,0,0,0,0,0,0,0,0,0,0,0,0,0,0,0,0,0,0,0,0,0,0,0,0,0,-0.0076,-0.0076,0,-0.0013,-0.0012,-0.0011,0.0026,0.0027,0.0027,0.0027,0.0122,0.0124,0.0126,0,0,0,0,0,0,0,0,0,0,0,0,0,-0.0103,-0.0103,-0.0077,-0.0076,-0.0075,-0.0013,-0.0012,-0.0011,0.0026,0.0027,0.0027,0.0028,0.0121,0.0124,0.0126,0,0,0,0,0,0,0,0,0,0,0,0,0,-0.0072,-0.0103,-0.0077,-0.0047,-0.0044,-0.0013,-0.0012,-0.0011,0.0026,0.0027,0.0027,0.0028,0.012,0.0123,0.0127,0.0138,0,0,0.0137,0.0138,0,0,0,0,0,0,0,0,-0.0074,-0.0072,-0.0052,-0.0049,-0.0045,0.0001,0.0013,0.0041,0.0026,-0.0002,0.0027,0.0028,0.0085,0.0091,0.0099,0.0143,0.0147,0.0137,0.0139,0.0141,0.0142,0,0,0,0,0,0,0,-0.0076,-0.0074,-0.0053,-0.0051,-0.0047,-0.0016,-0.0011,0.0019,0.0037,0.0001,0.0004,0.0013,0.0087,0.0096,0.0102,0.0148,0.0137,0.014,0.0142,0.0143,0.021,0.021,0,0,0,0,0,0,-0.0085,-0.0076,-0.0055,-0.0051,-0.0057,-0.0016,-0.0011,-0.0016,0.0037,0.0045,0.0013,0.0015,0.009,0.0098,0.0106,0.0131,0.0141,0.0144,0.0146,0.0211,0.021,0.021,0,0,0,0,0,0,-0.0086,-0.0085,-0.0057,-0.006,-0.0054,-0.0016,-0.0021,-0.0015,-0.0007,0.0046,0.0055,0.0014,0.0091,0.0101,0.0128,0.0134,0.0145,0.0148,0.0211,0.0211,0.021,0.0176,0,0,0,0,0,0,-0.0088,-0.0086,-0.0093,-0.0061,-0.0054,-0.0055,-0.0021,-0.0014,-0.0001,0.0002,0.005,0.0059,0.0092,0.0123,0.0131,0.0139,0.0151,0.0211,0.0211,0.021,0.0177,0.0174,0.0172,0,0,0,0,0,-0.0089,-0.0112,-0.0094,-0.0091,-0.0066,-0.0055,-0.005,-0.0021,-0.0002,-0.001,0.003,0.0057,0.0126,0.0125,0.0135,0.0144,0.0211,0.0211,0.021,0.0178,0.0175,0.0172,0,0,0,0,0,0,-0.0136,-0.0109,-0.0089,-0.0104,-0.0084,-0.0049,-0.0052,-0.0027,-0.0003,0.0005,0.0055,0.0066,0.0093,0.0118,0.0116,0.0161,0.0173,0.0175,0.0145,0.0143,0.014,0.0143,0.0154,0,0,0,0,0,-0.0146,-0.0152,-0.0121,-0.0132,-0.0125,-0.0087,-0.0077,-0.0056,-0.0027,-0.0016,0.0019,0.0059,0.0099,0.0119,0.0149,0.0173,0.0215,0.0185,0.0182,0.018,0.0188,0.0256,0.0261,0.0208,0.0208,0.0208,0,0,-0.0166,-0.0152,-0.0154,-0.014,-0.0121,-0.0119,-0.0081,-0.0074,-0.0064,-0.0009,0.0008,0.0048,0.0101,0.0129,0.0144,0.0153,0.0212,0.0179,0.0177,0.0187,0.0256,0.0262,0.0267,0.0208,0.0208,0.0208,0,0,-0.0217,-0.0198,-0.0221,-0.0203,-0.0177,-0.0149,-0.015,-0.0117,-0.0096,-0.0074,-0.0024,0.0022,0.0061,0.0114,0.0145,0.0145,0.0193,0.0147,0.0143,0.0208,0.0214,0.0219,0.0264,0.0273,0.0149,0.0149,0.0149,0,-0.024,-0.0264,-0.0227,-0.0239,-0.0229,-0.0166,-0.0185,-0.015,-0.0111,-0.0083,-0.0079,0.0021,0.0061,0.0132,0.0131,0.0143,0.0177,0.0152,0.0206,0.0212,0.0219,0.0264,0.0275,0.0147,0.0147,0.0147,0.0148,0,-0.0297,-0.0315,-0.0328,-0.0316,-0.0301,-0.0306,-0.0249,-0.0225,-0.0188,-0.0138,-0.0074,-0.0011,0.0054,0.0073,0.0103,0.017,0.0178,0.0193,0.0216,0.0222,0.0268,0.0281,0.0145,0.0145,0.0146,0.0146,0,0,-0.0354,-0.0369,-0.0371,-0.0386,-0.0341,-0.0339,-0.0306,-0.0258,-0.0218,-0.0162,-0.0111,-0.0031,0.0025,0.0064,0.0118,0.0179,0.0246,0.0199,0.0203,0.0246,0.0377,0.041,0.0427,0.0269,0.0272,0.0273,0.0387,0,-0.0412,-0.0467,-0.0445,-0.0481,-0.0505,-0.0431,-0.0405,-0.0338,-0.0263,-0.0193,-0.0089,-0.0024,0.0018,0.0053,0.0124,0.0221,0.0279,0.0213,0.0364,0.0368,0.04,0.0443,0.0384,0.0484,0.04,0.0402,0.0403,0,-0.0471,-0.0502,-0.0561,-0.057,-0.057,-0.0565,-0.0492,-0.046,-0.0321,-0.026,-0.015,-0.006,0.0057,0.0076,0.0257,0.0211,0.0288,0.0358,0.0365,0.0421,0.0425,0.0468,0.051,0.0425,0.0423,0.0421,0.042,0,-0.0538,-0.058,-0.0634,-0.0633,-0.0624,-0.0621,-0.0596,-0.0478,-0.0433,-0.0289,-0.023,-0.0073,0.0005,0.0134,0.0288,0.0273,0.0477,0.0475,0.0578,0.058,0.0575,0.0574,0.0594,0.0594,0.0594,0.0593,0.0593,0,-0.0611,-0.0652,-0.067,-0.07,-0.0734,-0.0693,-0.0676,-0.0611,-0.0497,-0.0424,-0.0272,-0.0184,0.0023,0.0171,0.0293,0.0485,0.0486,0.0597,0.0626,0.0559,0.0555,0.0538,0.053,0.0598,0.0597,0.0596,0.0595,0,-0.0684,-0.0697,-0.0761,-0.0776,-0.0777,-0.0797,-0.0754,-0.0718,-0.0607,-0.0504,-0.0464,-0.0254,-0.0051,0.0156,0.0381,0.0493,0.0664,0.072,0.0623,0.0639,0.0716,0.0705,0.0858,0.086,0.0862,0.0864,0.0865,0,-0.0735,-0.0776,-0.0824,-0.0852,-0.0866,-0.0878,-0.0869,-0.0783,-0.0727,-0.0545,-0.0498,-0.0278,-0.0102,0.0246,0.0488,0.0736,0.0722,0.0807,0.0781,0.0738,0.075,0.0735,0.0722,0.0749,0.0749,0.075,0.075,0,-0.0822,-0.0828,-0.0873,-0.0939,-0.0959,-0.0973,-0.095,-0.0928,-0.0796,-0.0707,-0.0549,-0.0403,-0.0025,0.0258,0.0595,0.0715,0.077,0.0822,0.0827,0.0691,0.0646,0.0654,0.0642,0.0753,0.0752,0.0752,0.0752,0.0752,-0.0868,-0.0911,-0.096,-0.1016,-0.1041,-0.1053,-0.1067,-0.1012,-0.0952,-0.0792,-0.0624,-0.0392,-0.0062,0.0405,0.0636,0.0839,0.0849,0.0873,0.0868,0.0864,0.0831,0.0792,0.0919,0.0919,0.092,0.092,0.0921,0,-0.092,-0.0961,-0.1028,-0.1087,-0.1123,-0.1119,-0.1105,-0.1088,-0.1039,-0.0862,-0.0695,-0.0347,0.0012,0.0334,0.0678,0.0896,0.0855,0.0895,0.0804,0.0801,0.0798,0.0758,0.0829,0.083,0.083,0.083,0,0,-0.0949,-0.1016,-0.1053,-0.114,-0.1177,-0.1211,-0.1213,-0.1176,-0.1073,-0.0932,-0.0752,-0.0432,-0.0007,0.0218,0.0499,0.0668,0.0654,0.0658,0.0707,0.0559,0.0553,0.0765,0.0699,0,0,0,0,0]}],[{"header":{"parameterUnit":"m.s-1","parameterCategory":2,"la1":30.2991,"la2":30.254,"lo1":-89.0895,"lo2":-89.0444,"dy":0.0017,"dx":0.0017,"nx":28,"ny":28,"refTime":"2024-06-20T03:00:00:Z","depth":"4","parameterNumber":2,"parameterNumberName":"U-component_of_CURRENTS"},"data":[0,0,0,0,0,0,0,0,0,0,0,0,0,0,0,0,0,0,0,0,0,0,0,0,0,0,0,0,0,0,0,0,0,0,0,0,0,0,0,0,0,0,0,0,0,0,0,0,0,0,0,0,0,0,0,0,0,0,-0.0705,-0.0706,0,-0.0709,-0.0708,-0.0708,-0.0711,-0.0712,-0.0713,-0.0714,-0.0551,-0.0546,-0.0541,0,0,0,0,0,0,0,0,0,0,0,0,0,-0.0567,-0.0569,-0.0705,-0.0706,-0.0707,-0.0709,-0.0708,-0.0707,-0.0711,-0.0712,-0.0713,-0.0714,-0.0553,-0.0547,-0.0541,0,0,0,0,0,0,0,0,0,0,0,0,0,-0.0595,-0.057,-0.0705,-0.0716,-0.0717,-0.0709,-0.0708,-0.0707,-0.071,-0.0712,-0.0713,-0.0715,-0.0555,-0.0548,-0.054,-0.0465,0,0,-0.0516,-0.0513,0,0,0,0,0,0,0,0,-0.0594,-0.0599,-0.0713,-0.0715,-0.0717,-0.0719,-0.0601,-0.0621,-0.071,-0.0703,-0.0714,-0.0715,-0.0597,-0.0586,-0.0573,-0.0457,-0.045,-0.0516,-0.0511,-0.0508,-0.0505,0,0,0,0,0,0,0,-0.0592,-0.0598,-0.0697,-0.0714,-0.0717,-0.0676,-0.0681,-0.0604,-0.0632,-0.0704,-0.0706,-0.0722,-0.0596,-0.058,-0.0569,-0.0448,-0.0516,-0.0509,-0.0504,-0.0501,-0.035,-0.0351,0,0,0,0,0,0,-0.0617,-0.0598,-0.0697,-0.0698,-0.0668,-0.0678,-0.0684,-0.0709,-0.0636,-0.0631,-0.0721,-0.0722,-0.0593,-0.0578,-0.0563,-0.0603,-0.0508,-0.05,-0.0496,-0.035,-0.0351,-0.0351,0,0,0,0,0,0,-0.0614,-0.0626,-0.0697,-0.0654,-0.0662,-0.0681,-0.0708,-0.0709,-0.0718,-0.0653,-0.0642,-0.0734,-0.0593,-0.0574,-0.0482,-0.0591,-0.0497,-0.049,-0.0349,-0.035,-0.0351,-0.0596,0,0,0,0,0,0,-0.061,-0.0625,-0.0642,-0.0657,-0.0666,-0.0688,-0.0708,-0.0708,-0.0729,-0.0731,-0.0659,-0.0645,-0.0593,-0.0494,-0.0474,-0.0579,-0.0484,-0.0348,-0.035,-0.0351,-0.0587,-0.0605,-0.0621,0,0,0,0,0,-0.0605,-0.0629,-0.0643,-0.0655,-0.0692,-0.0688,-0.0686,-0.0697,-0.0728,-0.0713,-0.0661,-0.0648,-0.0491,-0.0485,-0.0463,-0.0569,-0.0348,-0.0349,-0.0351,-0.0579,-0.0602,-0.062,0,0,0,0,0,0,-0.0565,-0.0633,-0.0648,-0.0688,-0.0687,-0.0692,-0.0705,-0.071,-0.0662,-0.0675,-0.0612,-0.059,-0.057,-0.0496,-0.0493,-0.0522,-0.0435,-0.0432,-0.0617,-0.0637,-0.0653,-0.0713,-0.0477,0,0,0,0,0,-0.057,-0.0623,-0.0642,-0.0676,-0.0688,-0.0699,-0.0704,-0.0709,-0.0682,-0.0668,-0.0613,-0.0569,-0.0554,-0.0533,-0.0471,-0.0451,-0.0435,-0.0512,-0.053,-0.0545,-0.0573,-0.0644,-0.0673,-0.0356,-0.0356,-0.0356,0,0,-0.058,-0.0615,-0.0651,-0.0674,-0.0692,-0.0714,-0.0704,-0.0725,-0.0735,-0.0651,-0.0629,-0.0604,-0.0551,-0.0554,-0.0545,-0.0512,-0.0616,-0.0547,-0.0562,-0.0581,-0.0649,-0.0681,-0.0709,-0.0357,-0.0357,-0.0357,0,0,-0.0598,-0.0646,-0.0683,-0.0699,-0.0726,-0.0733,-0.0746,-0.0744,-0.0734,-0.0724,-0.0685,-0.07,-0.0649,-0.0639,-0.064,-0.0693,-0.0695,-0.0705,-0.0858,-0.0928,-0.0957,-0.0982,-0.0983,-0.1007,-0.0729,-0.0729,-0.0729,0,-0.06,-0.0658,-0.0681,-0.0711,-0.0771,-0.0754,-0.0809,-0.0774,-0.0731,-0.0762,-0.0747,-0.0785,-0.0712,-0.0785,-0.082,-0.0745,-0.0769,-0.0804,-0.0961,-0.0985,-0.1007,-0.1002,-0.1025,-0.0741,-0.074,-0.0738,-0.0737,0,-0.064,-0.0692,-0.0721,-0.0784,-0.0828,-0.0869,-0.0872,-0.0882,-0.0922,-0.0922,-0.0997,-0.0928,-0.098,-0.0981,-0.0929,-0.1063,-0.1022,-0.0975,-0.0935,-0.1056,-0.1039,-0.1059,-0.0758,-0.0754,-0.075,-0.0747,0,0,-0.0676,-0.0735,-0.0763,-0.082,-0.0893,-0.0939,-0.0994,-0.1057,-0.1117,-0.1127,-0.1237,-0.1255,-0.127,-0.1264,-0.1213,-0.1275,-0.1423,-0.1224,-0.1222,-0.1269,-0.1573,-0.1442,-0.1449,-0.1452,-0.1457,-0.1461,-0.1494,0,-0.0714,-0.0794,-0.0835,-0.0957,-0.1024,-0.1093,-0.1142,-0.1205,-0.1248,-0.1298,-0.134,-0.1372,-0.1354,-0.1399,-0.1483,-0.1399,-0.1492,-0.1417,-0.1408,-0.1405,-0.1315,-0.1474,-0.1478,-0.1508,-0.1512,-0.1516,-0.1518,0,-0.0779,-0.0831,-0.0952,-0.1088,-0.1132,-0.1196,-0.1391,-0.1408,-0.1475,-0.1522,-0.1646,-0.1616,-0.1687,-0.1644,-0.1722,-0.1695,-0.1688,-0.1647,-0.1647,-0.146,-0.1315,-0.1357,-0.1553,-0.155,-0.1547,-0.1545,-0.1543,0,-0.0851,-0.0949,-0.1064,-0.1116,-0.123,-0.1335,-0.1402,-0.1508,-0.1537,-0.1632,-0.1703,-0.1798,-0.1819,-0.1882,-0.182,-0.1801,-0.1886,-0.1817,-0.1709,-0.1695,-0.1693,-0.1666,-0.1946,-0.1946,-0.1946,-0.1946,-0.1946,0,-0.0923,-0.1021,-0.1098,-0.1167,-0.1291,-0.1396,-0.1522,-0.159,-0.1686,-0.1724,-0.1794,-0.1845,-0.1899,-0.193,-0.1901,-0.1866,-0.1968,-0.1778,-0.1731,-0.1783,-0.1765,-0.1706,-0.1677,-0.1947,-0.1947,-0.1947,-0.1946,0,-0.0983,-0.1039,-0.1144,-0.1274,-0.1316,-0.141,-0.1535,-0.1596,-0.1705,-0.177,-0.1804,-0.1898,-0.1928,-0.195,-0.1975,-0.1923,-0.1894,-0.1868,-0.1908,-0.1852,-0.1632,-0.1615,-0.1749,-0.1745,-0.1742,-0.174,-0.1738,0,-0.0998,-0.1067,-0.1184,-0.1219,-0.127,-0.1394,-0.1452,-0.1584,-0.1632,-0.1773,-0.1786,-0.1869,-0.1909,-0.1852,-0.1891,-0.1864,-0.1843,-0.1825,-0.1772,-0.169,-0.163,-0.1617,-0.1605,-0.1733,-0.1732,-0.1731,-0.173,0,-0.1002,-0.1054,-0.111,-0.1172,-0.1244,-0.1316,-0.1409,-0.1446,-0.1584,-0.1702,-0.173,-0.1741,-0.1773,-0.1773,-0.178,-0.1754,-0.1827,-0.1793,-0.1798,-0.1748,-0.1672,-0.1612,-0.1603,-0.172,-0.1722,-0.1722,-0.1723,0,-0.0955,-0.0977,-0.103,-0.1081,-0.1155,-0.1196,-0.1276,-0.1341,-0.1415,-0.1578,-0.1582,-0.1661,-0.1754,-0.1717,-0.1714,-0.1689,-0.1652,-0.1593,-0.1608,-0.162,-0.1562,-0.1444,-0.143,0,0,0,0,0,-0.088,-0.0892,-0.0926,-0.0966,-0.1042,-0.1084,-0.1213,-0.13,-0.1445,-0.1426,-0.1505,-0.1523,-0.153,-0.1573,-0.1516,-0.1637,-0.1648,-0.1564,-0.1585,-0.1662,-0.1674,-0.1617,0,0,0,0,0,0,-0.0819,-0.0855,-0.0872,-0.0851,-0.0864,-0.0936,-0.1014,-0.1124,-0.1135,-0.1287,-0.1299,-0.1416,-0.144,-0.1524,-0.1473,-0.1487,-0.1468,-0.1627,-0.1623,-0.1655,-0.1666,-0.1676,-0.1621,0,0,0,0,0]},{"header":{"parameterUnit":"m.s-1","parameterCategory":2,"la1":30.2991,"la2":30.254,"lo1":-89.0895,"lo2":-89.0444,"dy":0.0017,"dx":0.0017,"nx":28,"ny":28,"refTime":"2024-06-20T03:00:00:Z","depth":"4","parameterNumber":3,"parameterNumberName":"V-component_of_CURRENTS"},"data":[0,0,0,0,0,0,0,0,0,0,0,0,0,0,0,0,0,0,0,0,0,0,0,0,0,0,0,0,0,0,0,0,0,0,0,0,0,0,0,0,0,0,0,0,0,0,0,0,0,0,0,0,0,0,0,0,0,0,0.0257,0.0257,0,0.0328,0.0329,0.0331,0.0379,0.0379,0.0378,0.0378,0.0447,0.0449,0.0451,0,0,0,0,0,0,0,0,0,0,0,0,0,0.0203,0.0204,0.0257,0.0257,0.0258,0.0328,0.033,0.0331,0.0379,0.0379,0.0378,0.0378,0.0447,0.0449,0.0451,0,0,0,0,0,0,0,0,0,0,0,0,0,0.025,0.0204,0.0257,0.0286,0.0289,0.0328,0.033,0.0331,0.0379,0.0379,0.0378,0.0378,0.0446,0.0449,0.0452,0.0474,0,0,0.0461,0.0462,0,0,0,0,0,0,0,0,0.0247,0.0253,0.0282,0.0284,0.0288,0.034,0.0335,0.0377,0.0379,0.035,0.0378,0.0378,0.0408,0.0414,0.0435,0.0477,0.048,0.0461,0.0463,0.0464,0.0465,0,0,0,0,0,0,0,0.0244,0.025,0.029,0.0282,0.0286,0.0309,0.0316,0.0344,0.0383,0.0353,0.0355,0.0355,0.041,0.0432,0.0437,0.0481,0.0461,0.0463,0.0465,0.0466,0.0671,0.0674,0,0,0,0,0,0,0.0223,0.0247,0.0288,0.0292,0.0261,0.031,0.0318,0.0328,0.0383,0.039,0.0355,0.0357,0.0427,0.0434,0.044,0.0532,0.0464,0.0467,0.0468,0.0667,0.0671,0.0675,0,0,0,0,0,0,0.0222,0.0226,0.0285,0.0266,0.0275,0.031,0.0321,0.0329,0.0354,0.0384,0.0392,0.0371,0.0427,0.0435,0.048,0.0532,0.0468,0.0471,0.0663,0.0668,0.0673,0.0676,0,0,0,0,0,0,0.022,0.0226,0.0232,0.0265,0.0275,0.0317,0.0321,0.033,0.0351,0.0354,0.04,0.0406,0.0428,0.0476,0.0483,0.0535,0.0473,0.0658,0.0665,0.0672,0.0671,0.0681,0.0689,0,0,0,0,0,0.0218,0.022,0.0232,0.0237,0.028,0.0318,0.0327,0.0354,0.0352,0.0373,0.0404,0.0405,0.0526,0.0479,0.0487,0.0542,0.0655,0.0663,0.0671,0.0667,0.0679,0.0689,0,0,0,0,0,0,0.0194,0.0226,0.024,0.0251,0.0286,0.0324,0.0335,0.0354,0.0396,0.0393,0.0424,0.0434,0.051,0.0527,0.0474,0.0631,0.0603,0.0613,0.0597,0.0609,0.0617,0.0503,0.0475,0,0,0,0,0,0.0192,0.0206,0.0243,0.0252,0.0266,0.0302,0.0319,0.034,0.0374,0.0392,0.043,0.0484,0.0553,0.0574,0.0635,0.0688,0.0657,0.0744,0.0753,0.076,0.068,0.0681,0.0679,0.0702,0.0702,0.0702,0,0,0.0185,0.0201,0.0211,0.0249,0.0273,0.0286,0.0313,0.0337,0.0354,0.0391,0.0434,0.0511,0.0578,0.066,0.0697,0.0672,0.0758,0.077,0.0775,0.0689,0.0688,0.0685,0.0681,0.0708,0.0707,0.0706,0,0,0.017,0.0193,0.02,0.0223,0.0254,0.0278,0.0283,0.0333,0.0366,0.0422,0.0473,0.0543,0.0651,0.0694,0.0733,0.0818,0.0812,0.0898,0.083,0.0836,0.083,0.0825,0.0843,0.0839,0.0892,0.0892,0.0892,0,0.0151,0.0161,0.0209,0.0214,0.0206,0.0267,0.0256,0.031,0.0374,0.0388,0.0437,0.0582,0.0649,0.0709,0.0763,0.0826,0.0836,0.0777,0.0836,0.083,0.0824,0.0844,0.0839,0.0893,0.0893,0.0892,0.0892,0,0.0148,0.0144,0.0144,0.0164,0.0178,0.0177,0.0233,0.0275,0.0326,0.0372,0.0461,0.0562,0.0624,0.0718,0.0763,0.0796,0.0823,0.0851,0.0782,0.082,0.0843,0.0837,0.0894,0.0894,0.0894,0.0893,0,0,0.0095,0.0131,0.0122,0.01,0.0135,0.0134,0.0172,0.0205,0.0215,0.0327,0.034,0.0495,0.0541,0.0585,0.0682,0.0698,0.0722,0.0754,0.0754,0.0722,0.0747,0.0745,0.074,0.0769,0.0767,0.0765,0.0797,0,0.0055,0.0034,0.0066,0.0022,-0.0002,0.0046,0.0068,0.0113,0.0188,0.0239,0.0341,0.0415,0.05,0.0554,0.0579,0.0699,0.0699,0.0709,0.0753,0.0752,0.0704,0.0729,0.0758,0.0793,0.0792,0.0791,0.0791,0,0.0016,-0.0004,-0.0051,-0.0084,-0.009,-0.0094,-0.0093,-0.006,0.0034,0.0098,0.0165,0.0269,0.0336,0.0408,0.0511,0.0524,0.0597,0.0674,0.0678,0.0638,0.0738,0.074,0.0781,0.0781,0.0782,0.0783,0.0783,0,-0.0085,-0.0107,-0.0162,-0.0172,-0.017,-0.0188,-0.0182,-0.0112,-0.0086,-0.0001,0.0044,0.0134,0.0207,0.0283,0.0466,0.0488,0.0576,0.063,0.0676,0.0679,0.0663,0.0667,0.0625,0.0625,0.0625,0.0625,0.0625,0,-0.0172,-0.0226,-0.0213,-0.0253,-0.0317,-0.0288,-0.0319,-0.0277,-0.0211,-0.0179,-0.0051,0.0004,0.0178,0.0288,0.0411,0.0531,0.0525,0.0619,0.0665,0.0682,0.0688,0.0663,0.0667,0.0626,0.0626,0.0626,0.0625,0,-0.028,-0.0268,-0.0341,-0.0359,-0.0366,-0.0416,-0.0406,-0.0403,-0.0334,-0.0286,-0.0261,-0.0095,0.0051,0.0225,0.0389,0.0468,0.0582,0.0616,0.062,0.0675,0.0693,0.0697,0.0641,0.0641,0.0641,0.064,0.064,0,-0.0327,-0.0373,-0.0425,-0.0459,-0.0471,-0.0515,-0.0523,-0.0473,-0.0449,-0.0336,-0.0312,-0.016,-0.0031,0.0181,0.0358,0.055,0.0581,0.0621,0.0627,0.0631,0.0683,0.0689,0.0694,0.064,0.064,0.064,0.064,0,-0.0427,-0.0443,-0.049,-0.0553,-0.0588,-0.0623,-0.0625,-0.0618,-0.0535,-0.0475,-0.0352,-0.0202,-0.0036,0.0162,0.0321,0.0461,0.0587,0.0619,0.062,0.0626,0.063,0.0683,0.0688,0.0639,0.0639,0.0639,0.0639,0,-0.0479,-0.0528,-0.0569,-0.0628,-0.0676,-0.0699,-0.0702,-0.0651,-0.0619,-0.0474,-0.0439,-0.0231,-0.0098,0.0116,0.0262,0.0403,0.0432,0.0456,0.0466,0.0469,0.042,0.04,0.0337,0,0,0,0,0,-0.0512,-0.0559,-0.0627,-0.0677,-0.0729,-0.0748,-0.0742,-0.0718,-0.0635,-0.0565,-0.0496,-0.0333,-0.0083,0.0033,0.0166,0.0247,0.0447,0.0405,0.0476,0.0634,0.0635,0.0608,0,0,0,0,0,0,-0.0527,-0.0597,-0.0631,-0.0698,-0.0739,-0.0778,-0.0779,-0.0728,-0.0673,-0.0576,-0.0446,-0.0331,-0.0093,-0.0166,0.0158,0.0207,0.0262,0.0539,0.0541,0.0634,0.0635,0.0636,0.0607,0,0,0,0,0]}]]